Вернуться в каталог

STARLINK-33604

АктивенСвязьVLEO
NORAD 63070·PAYLOAD·🇺🇸 United States

Запущен Feb 21, 2025 с Cape Canaveral Space Force Station

Loading…

Ближайшие Пролёты (ближайшие 24 часа)

TLE

СвежийSource: CelesTrak SupGP

Эпоха: Sep 15, 2026, 03:42 UTC

1 63070C 25035U   26258.15465278  .00047322  00000+0  17139-2 0  2580
2 63070  43.0019 157.4872 0001167 265.9927  11.2344 15.27557038    13

Отслеживайте STARLINK-33604 в реальном времени с AllMySat

Download on the App Store